IRIDIUM 18

Last updated on Wed Nov 29 2017 00:19:02 GMT+0000 (Coordinated Universal Time)

1 24872U 97034D 17332.45292038 .00000000 00000-0 -65345-5 0 9994 2 24872 86.4180 313.3877 0002234 101.2646 258.8803 14.38607134 67537
UTC large
Height (km)
Speed (km/s)
/
Latitude / Longitude
Inclination (degrees)
Orbital Period (minutes)
Azimuth
Elevation
Range (km)
Doppler Factor

Next 0 passes for location: London (51.5072 / 0.1276)

Sorry there are no passes over London.